Whitewood, VA (24657)

3:28 AM EST on February 14, 2016 (GMT -0500)
Jewell Ridge | | Change Station
CLOSE
Current Station
Personal Weather Station
Location: Jewell Ridge, VA
Elevation: 2986 ft
Nearby Weather Stations
Active Advisory: Winter Storm Watch

Elev 2986 ft 37.20 °N, 81.78 °W | Updated 14 minutes ago

Clear
Clear
2.1 °F
Feels Like 2 °F
N
1.7
Wind Variable Wind from ESE

Today
High -- | Low -- °F
--% Chance of Precip.
Yesterday
High -- | Low -- °F
Precip. -- in
Pressure 30.29 in
Visibility 10.0 miles
Clouds Clear
Windchill 2 °F
Dew Point -4 °F
Humidity 75%
Rainfall 0.00 in
Snow Depth Not available.
7:18 AM 6:05 PM
Waxing Crescent, 39% visible
METAR KJFZ 140815Z AUTO 00000KT 10SM CLR M14/M20 A3029 RMK AO2 T11361205
Pressure 30.29 in
Visibility 10.0 miles
Clouds Clear
Windchill 2 °F
Dew Point -4 °F
Humidity 75%
Rainfall 0.00 in
Snow Depth Not available.
7:18 AM 6:05 PM
Waxing Crescent, 39% visible
METAR KJFZ 140815Z AUTO 00000KT 10SM CLR M14/M20 A3029 RMK AO2 T11361205

10-Day Weather Forecast

Almanac

Astronomy

Feb. 14, 2016 Rise Set
Actual Time
Civil Twilight
Nautical Twilight
Astronomical Twilight
Moon
Length of Visible Light
Length of Day
Tomorrow will be .
, % of the Moon is Illuminated

Today's Extremes

State Highs State Lows

Community

WunderPhotos

Upload Photos

1,892,757 photos uploaded!

WunderBlog® & News

Nearby

Air Quality

  Air Quality AQ Index Pollutant
Not available.

Snow Depth

Station Depth Elevation

Earthquake Activity

City Distance Mag. Time & Date
Minimum magnitude displayed is 2.5.

Coastal Water Temperatures

Place Temperature

Stations

Nearby Weather Stations

Station Location Temp. Windchill Dew Point Humidity Wind Precip. Elev Updated Type
                   

Watches & Warnings

Winter Storm Watch
Issued: 9:52 PM EST Feb. 13, 2016 – National Weather Service

... Winter Storm Watch now in effect from Sunday afternoon through
Monday afternoon...

* hazards... potential for four or more inches of snow and maybe
some sleet too.

* Timing... Sunday afternoon through Monday afternoon.

* Impacts... travel difficulties and power outages possible.

Precautionary/preparedness actions...

A Winter Storm Watch means there is a potential for significant
snow... sleet... or ice accumulations that may impact travel.
Continue to monitor the latest forecasts.